Location: Corocito
(10.1894°N, 67.0986°W)
Time: 09:39:08
(UTC+00:00)

USA 290 - Pass Details

Date: 29 May 2024
Orbit: 403 x 414 km, 73.6° (Epoch: 12 May)

Event Time Altitude Azimuth Distance (km) Brightness Sun altitude
Rises 23:41:03 0° 358° (N) 2,309 6.4 -13.2°
Reaches altitude 10° 23:43:10 10° 7° (N) 1,451 5.2 -13.7°
Maximum altitude 23:46:08 36° 76° (ENE) 660 2.8 -14.3°
Enters shadow 23:46:55 30° 110° (ESE) 744 2.9 -14.5°
